Simultaneous Nadir Overpasses (SNOs) Predictions

Prediction of SNOs between NOAA-15 and METOP-C Satellite Orbit:

Table of predicted SNOs for the next 14.0 days since TLE Epoch: 9/19/2020
Index Date (NOAA-15) Time (NOAA-15) Lat,Lon (NOAA-15) SZA (NOAA-15 ) Date (METOP-C) Time (METOP-C) Lat,Lon (METOP-C) SZA (METOP-C ) Distance(km) Time Diff (sec)
1 10/03/2020 12:11:33 80.95, 33.22 87.17 10/03/2020 12:10:20 80.97, 33.26 87.15 1.92 73
2 10/03/2020 13:02:07 -80.95,-159.45 92.83 10/03/2020 13:01:02 -80.97,-159.45 92.84 1.47 65
3 10/03/2020 13:52:36 80.96, 7.74 87.18 10/03/2020 13:51:42 80.96, 7.75 87.16 0.21 54
4 10/03/2020 14:43:10 -80.96, 175.07 92.81 10/03/2020 14:42:24 -80.96, 175.05 92.84 0.66 46
5 10/03/2020 15:33:38 80.96, -17.36 87.22 10/03/2020 15:33:03 80.97, -17.39 87.21 1.69 35
6 10/03/2020 16:24:12 -80.96, 149.96 92.78 10/03/2020 16:23:45 -80.97, 149.90 92.78 1.60 27
7 10/03/2020 17:14:41 80.97, -42.84 87.23 10/03/2020 17:14:25 80.96, -42.90 87.22 1.20 16
8 10/03/2020 18:05:15 -80.97, 124.48 92.76 10/03/2020 18:05:07 -80.96, 124.40 92.78 1.67 8
9 10/03/2020 18:55:43 80.96, -67.95 87.27 10/03/2020 18:55:46 80.97, -68.05 87.27 2.27 3
10 10/03/2020 19:46:17 -80.96, 99.37 92.73 10/03/2020 19:46:28 -80.97, 99.25 92.73 2.33 11
11 10/03/2020 20:36:46 80.97, -93.42 87.28 10/03/2020 20:37:08 80.96, -93.56 87.27 2.45 22
